Time,TemperatureF,DewpointF,PressureIn,WindDirection,WindDirectionDegrees,WindSpeedMPH,WindSpeedGustMPH,Humidity,HourlyPrecipIn,Conditions,Clouds,dailyrainin,SoftwareType,DateUTC
2013-01-08 00:04:00,42.3,42.0,22.03,East,100,0.0,3.0,99,0.00,,---,0.00,VWS V13.01,2013-01-08 08:04:00,
2013-01-08 00:09:00,42.2,41.9,22.03,East,100,0.0,3.0,99,0.00,,---,0.00,VWS V13.01,2013-01-08 08:09:00,
2013-01-08 00:14:00,42.3,42.0,22.04,East,100,1.0,3.0,99,0.00,,---,0.00,VWS V13.01,2013-01-08 08:14:00,
2013-01-08 00:19:00,42.3,42.0,22.03,East,100,2.0,3.0,99,0.00,,---,0.00,VWS V13.01,2013-01-08 08:19:00,
2013-01-08 00:24:00,42.2,41.9,22.03,East,100,0.0,3.0,99,0.00,,---,0.00,VWS V13.01,2013-01-08 08:24:00,
2013-01-08 00:29:00,42.1,41.8,22.03,East,100,1.0,3.0,99,0.00,,---,0.00,VWS V13.01,2013-01-08 08:29:00,
2013-01-08 00:34:00,42.1,41.8,22.03,East,100,2.0,3.0,99,0.00,,---,0.00,VWS V13.01,2013-01-08 08:34:00,
2013-01-08 00:39:00,42.1,41.8,22.03,East,100,3.0,3.0,99,0.00,,---,0.00,VWS V13.01,2013-01-08 08:39:00,
2013-01-08 00:44:00,42.1,41.8,22.03,East,100,1.0,3.0,99,0.00,,---,0.00,VWS V13.01,2013-01-08 08:44:00,
2013-01-08 00:49:00,42.0,41.5,22.03,East,100,1.0,3.0,98,0.00,,---,0.00,VWS V13.01,2013-01-08 08:49:00,
2013-01-08 00:54:00,42.0,41.5,22.03,East,100,1.0,3.0,98,0.00,,---,0.00,VWS V13.01,2013-01-08 08:54:00,
2013-01-08 00:59:00,41.9,41.6,22.03,East,100,1.0,3.0,99,0.00,,---,0.00,VWS V13.01,2013-01-08 08:59:00,
2013-01-08 01:04:00,41.9,41.4,22.03,East,100,0.0,3.0,98,0.00,,---,0.00,VWS V13.01,2013-01-08 09:04:00,
2013-01-08 01:09:00,41.9,41.4,22.03,East,100,3.0,3.0,98,0.00,,---,0.00,VWS V13.01,2013-01-08 09:09:00,
2013-01-08 01:14:00,41.8,41.5,22.03,East,100,1.0,4.0,99,0.00,,---,0.00,VWS V13.01,2013-01-08 09:14:00,
2013-01-08 01:19:00,41.8,41.3,22.03,East,100,0.0,4.0,98,0.00,,---,0.00,VWS V13.01,2013-01-08 09:19:00,
2013-01-08 01:24:00,41.8,41.3,22.03,East,100,0.0,4.0,98,0.00,,---,0.00,VWS V13.01,2013-01-08 09:24:00,
2013-01-08 01:29:00,41.6,41.1,22.03,East,100,0.0,4.0,98,0.00,,---,0.00,VWS V13.01,2013-01-08 09:29:00,
2013-01-08 01:34:00,41.5,41.0,22.03,East,100,0.0,0.0,98,0.00,,---,0.00,VWS V13.01,2013-01-08 09:34:00,
2013-01-08 01:39:00,41.2,40.7,22.04,East,100,0.0,0.0,98,0.00,,---,0.00,VWS V13.01,2013-01-08 09:39:00,
2013-01-08 01:44:00,41.1,40.6,22.03,East,100,0.0,0.0,98,0.00,,---,0.00,VWS V13.01,2013-01-08 09:44:00,
2013-01-08 01:49:00,41.0,40.5,22.03,East,100,0.0,0.0,98,0.00,,---,0.00,VWS V13.01,2013-01-08 09:49:00,
2013-01-08 01:54:00,41.0,40.5,22.03,East,100,0.0,0.0,98,0.00,,---,0.00,VWS V13.01,2013-01-08 09:54:00,
2013-01-08 01:59:00,40.7,39.9,22.04,East,100,0.0,0.0,97,0.00,,---,0.00,VWS V13.01,2013-01-08 09:59:00,
2013-01-08 02:04:00,40.6,40.1,22.04,East,100,0.0,0.0,98,0.00,,---,0.00,VWS V13.01,2013-01-08 10:04:00,
2013-01-08 02:09:00,40.4,39.9,22.04,East,100,0.0,0.0,98,0.00,,---,0.00,VWS V13.01,2013-01-08 10:09:00,
2013-01-08 02:14:00,40.2,39.7,22.04,East,100,0.0,0.0,98,0.00,,---,0.00,VWS V13.01,2013-01-08 10:14:00,
2013-01-08 02:19:00,40.1,39.6,22.04,East,100,0.0,0.0,98,0.00,,---,0.00,VWS V13.01,2013-01-08 10:19:00,
2013-01-08 02:25:00,40.0,39.7,22.04,East,100,0.0,0.0,99,0.00,,---,0.00,VWS V13.01,2013-01-08 10:25:00,
2013-01-08 02:30:00,39.8,39.3,22.04,East,100,0.0,0.0,98,0.00,,---,0.00,VWS V13.01,2013-01-08 10:30:00,
2013-01-08 02:35:00,39.7,39.4,22.04,East,100,0.0,0.0,99,0.00,,---,0.00,VWS V13.01,2013-01-08 10:35:00,
2013-01-08 02:40:00,39.7,39.2,22.04,East,100,0.0,0.0,98,0.00,,---,0.00,VWS V13.01,2013-01-08 10:40:00,
2013-01-08 02:45:00,39.6,39.1,22.05,East,100,0.0,0.0,98,0.00,,---,0.00,VWS V13.01,2013-01-08 10:45:00,
2013-01-08 02:50:00,39.5,39.0,22.04,East,100,0.0,0.0,98,0.00,,---,0.00,VWS V13.01,2013-01-08 10:50:00,
2013-01-08 02:55:00,39.4,39.1,22.04,East,100,0.0,0.0,99,0.00,,---,0.00,VWS V13.01,2013-01-08 10:55:00,
2013-01-08 03:00:00,39.4,39.1,22.04,East,100,0.0,0.0,99,0.00,,---,0.00,VWS V13.01,2013-01-08 11:00:00,
2013-01-08 03:05:00,39.5,39.2,22.04,East,100,0.0,0.0,99,0.00,,---,0.00,VWS V13.01,2013-01-08 11:05:00,
2013-01-08 03:10:00,39.5,39.2,22.04,East,100,0.0,0.0,99,0.00,,---,0.00,VWS V13.01,2013-01-08 11:10:00,
2013-01-08 03:15:00,39.5,39.2,22.04,East,100,1.0,3.0,99,0.00,,---,0.00,VWS V13.01,2013-01-08 11:15:00,
2013-01-08 03:20:00,39.5,39.2,22.04,East,100,0.0,3.0,99,0.00,,---,0.00,VWS V13.01,2013-01-08 11:20:00,
2013-01-08 03:25:00,39.4,39.1,22.04,East,100,1.0,3.0,99,0.00,,---,0.00,VWS V13.01,2013-01-08 11:25:00,
2013-01-08 03:30:00,39.4,39.1,22.03,East,100,0.0,3.0,99,0.00,,---,0.00,VWS V13.01,2013-01-08 11:30:00,
2013-01-08 03:35:00,39.3,39.0,22.04,East,100,0.0,0.0,99,0.00,,---,0.00,VWS V13.01,2013-01-08 11:35:00,
2013-01-08 03:40:00,39.3,39.0,22.04,East,100,0.0,0.0,99,0.00,,---,0.00,VWS V13.01,2013-01-08 11:40:00,
2013-01-08 03:45:00,39.3,39.0,22.04,East,100,0.0,0.0,99,0.00,,---,0.00,VWS V13.01,2013-01-08 11:45:00,
2013-01-08 03:50:00,39.3,39.0,22.04,East,100,0.0,0.0,99,0.00,,---,0.00,VWS V13.01,2013-01-08 11:50:00,
2013-01-08 03:55:00,39.2,38.9,22.04,East,100,0.0,0.0,99,0.00,,---,0.00,VWS V13.01,2013-01-08 11:55:00,
2013-01-08 04:00:00,39.1,38.6,22.04,East,100,0.0,0.0,98,0.00,,---,0.00,VWS V13.01,2013-01-08 12:00:00,
2013-01-08 04:05:00,38.9,38.4,22.04,East,100,0.0,0.0,98,0.00,,---,0.00,VWS V13.01,2013-01-08 12:05:00,
2013-01-08 04:10:00,38.9,38.6,22.04,East,100,0.0,0.0,99,0.00,,---,0.00,VWS V13.01,2013-01-08 12:10:00,
2013-01-08 04:15:00,38.8,38.5,22.04,East,100,0.0,0.0,99,0.00,,---,0.00,VWS V13.01,2013-01-08 12:15:00,
2013-01-08 04:20:00,38.7,38.4,22.03,East,100,0.0,0.0,99,0.00,,---,0.00,VWS V13.01,2013-01-08 12:20:00,
2013-01-08 04:25:00,38.6,38.3,22.03,East,100,0.0,0.0,99,0.00,,---,0.00,VWS V13.01,2013-01-08 12:25:00,
2013-01-08 04:30:00,38.6,38.6,22.03,East,100,0.0,0.0,100,0.00,,---,0.00,VWS V13.01,2013-01-08 12:30:00,
2013-01-08 04:35:00,38.6,38.3,22.03,East,100,0.0,0.0,99,0.00,,---,0.00,VWS V13.01,2013-01-08 12:35:00,
2013-01-08 04:40:00,38.5,38.2,22.03,East,100,0.0,0.0,99,0.00,,---,0.00,VWS V13.01,2013-01-08 12:40:00,
2013-01-08 04:45:00,38.4,38.1,22.03,East,100,0.0,0.0,99,0.00,,---,0.00,VWS V13.01,2013-01-08 12:45:00,
2013-01-08 04:50:00,38.4,38.1,22.03,East,100,0.0,0.0,99,0.00,,---,0.00,VWS V13.01,2013-01-08 12:50:00,
2013-01-08 04:55:00,38.5,38.5,22.02,East,100,0.0,0.0,100,0.00,,---,0.00,VWS V13.01,2013-01-08 12:55:00,
2013-01-08 05:00:00,38.4,38.1,22.03,East,100,0.0,0.0,99,0.00,,---,0.00,VWS V13.01,2013-01-08 13:00:00,
2013-01-08 05:05:00,38.3,38.0,22.02,East,100,0.0,0.0,99,0.00,,---,0.00,VWS V13.01,2013-01-08 13:05:00,
2013-01-08 05:10:00,38.3,38.0,22.02,East,100,0.0,0.0,99,0.00,,---,0.00,VWS V13.01,2013-01-08 13:10:00,
2013-01-08 05:15:00,38.1,37.8,22.03,East,100,0.0,0.0,99,0.00,,---,0.00,VWS V13.01,2013-01-08 13:15:00,
2013-01-08 05:20:00,38.0,37.7,22.03,East,100,0.0,0.0,99,0.00,,---,0.00,VWS V13.01,2013-01-08 13:20:00,
2013-01-08 05:25:00,38.0,37.7,22.03,East,100,0.0,0.0,99,0.00,,---,0.00,VWS V13.01,2013-01-08 13:25:00,
2013-01-08 05:30:00,37.9,37.6,22.03,East,100,0.0,0.0,99,0.00,,---,0.00,VWS V13.01,2013-01-08 13:30:00,
2013-01-08 05:35:00,37.9,37.6,22.03,East,100,0.0,0.0,99,0.00,,---,0.00,VWS V13.01,2013-01-08 13:35:00,
2013-01-08 05:40:00,37.8,37.5,22.03,East,100,0.0,0.0,99,0.00,,---,0.00,VWS V13.01,2013-01-08 13:40:00,
2013-01-08 05:45:00,37.6,37.1,22.03,East,100,0.0,0.0,98,0.00,,---,0.00,VWS V13.01,2013-01-08 13:45:00,
2013-01-08 05:50:00,37.6,37.1,22.03,East,100,0.0,0.0,98,0.00,,---,0.00,VWS V13.01,2013-01-08 13:50:00,
2013-01-08 05:55:00,37.5,37.2,22.04,East,100,0.0,0.0,99,0.00,,---,0.00,VWS V13.01,2013-01-08 13:55:00,
2013-01-08 06:00:00,37.5,37.2,22.04,East,100,0.0,0.0,99,0.00,,---,0.00,VWS V13.01,2013-01-08 14:00:00,
2013-01-08 06:05:00,37.5,37.2,22.03,East,100,0.0,0.0,99,0.00,,---,0.00,VWS V13.01,2013-01-08 14:05:00,
2013-01-08 06:10:00,37.3,37.0,22.04,East,100,0.0,0.0,99,0.00,,---,0.00,VWS V13.01,2013-01-08 14:10:00,
2013-01-08 06:15:00,37.2,37.0,22.04,East,100,0.0,0.0,99,0.00,,---,0.00,VWS V13.01,2013-01-08 14:15:00,
2013-01-08 06:20:00,37.2,37.0,22.04,East,100,0.0,0.0,99,0.00,,---,0.00,VWS V13.01,2013-01-08 14:20:00,
2013-01-08 06:25:00,37.1,36.8,22.04,East,100,0.0,0.0,99,0.00,,---,0.00,VWS V13.01,2013-01-08 14:25:00,
2013-01-08 06:30:00,36.9,36.4,22.04,East,100,0.0,0.0,98,0.00,,---,0.00,VWS V13.01,2013-01-08 14:30:00,
2013-01-08 06:35:00,36.9,36.7,22.05,East,100,0.0,0.0,99,0.00,,---,0.00,VWS V13.01,2013-01-08 14:35:00,
2013-01-08 06:40:00,36.8,36.3,22.05,East,100,0.0,0.0,98,0.00,,---,0.00,VWS V13.01,2013-01-08 14:40:00,
2013-01-08 06:45:00,36.8,36.5,22.05,East,100,0.0,0.0,99,0.00,,---,0.00,VWS V13.01,2013-01-08 14:45:00,
2013-01-08 06:50:00,36.8,36.5,22.05,East,100,0.0,0.0,99,0.00,,---,0.00,VWS V13.01,2013-01-08 14:50:00,
2013-01-08 06:55:00,36.9,36.7,22.05,East,100,0.0,0.0,99,0.00,,---,0.00,VWS V13.01,2013-01-08 14:55:00,
2013-01-08 07:00:00,36.8,36.5,22.05,East,100,0.0,0.0,99,0.00,,---,0.00,VWS V13.01,2013-01-08 15:00:00,
2013-01-08 07:05:00,36.8,36.5,22.05,East,100,0.0,0.0,99,0.00,,---,0.00,VWS V13.01,2013-01-08 15:05:00,
2013-01-08 07:10:00,36.9,36.9,22.05,East,100,0.0,0.0,100,0.00,,---,0.00,VWS V13.01,2013-01-08 15:10:00,
2013-01-08 07:15:00,37.0,36.8,22.05,East,100,0.0,0.0,99,0.00,,---,0.00,VWS V13.01,2013-01-08 15:15:00,
2013-01-08 07:20:00,36.9,36.7,22.06,East,100,0.0,0.0,99,0.00,,---,0.00,VWS V13.01,2013-01-08 15:20:00,
2013-01-08 07:25:00,36.9,36.7,22.06,East,100,0.0,0.0,99,0.00,,---,0.00,VWS V13.01,2013-01-08 15:25:00,
2013-01-08 07:30:00,36.8,36.5,22.06,East,100,0.0,0.0,99,0.00,,---,0.00,VWS V13.01,2013-01-08 15:30:00,
2013-01-08 07:35:00,36.9,36.9,22.07,East,100,0.0,0.0,100,0.00,,---,0.00,VWS V13.01,2013-01-08 15:35:00,
2013-01-08 07:40:00,36.9,36.9,22.07,East,100,0.0,0.0,100,0.00,,---,0.00,VWS V13.01,2013-01-08 15:40:00,
2013-01-08 07:45:00,37.0,37.0,22.07,East,100,0.0,0.0,100,0.00,,---,0.00,VWS V13.01,2013-01-08 15:45:00,
2013-01-08 07:50:00,37.1,37.1,22.07,East,100,0.0,0.0,100,0.00,,---,0.00,VWS V13.01,2013-01-08 15:50:00,
2013-01-08 07:55:00,37.1,37.1,22.07,East,100,0.0,0.0,100,0.00,,---,0.00,VWS V13.01,2013-01-08 15:55:00,
2013-01-08 08:00:00,37.2,37.0,22.07,East,100,0.0,0.0,99,0.00,,---,0.00,VWS V13.01,2013-01-08 16:00:00,
2013-01-08 08:05:00,37.4,37.4,22.08,East,100,0.0,0.0,100,0.00,,---,0.00,VWS V13.01,2013-01-08 16:05:00,
2013-01-08 08:10:00,37.5,37.5,22.08,East,100,0.0,0.0,100,0.00,,---,0.00,VWS V13.01,2013-01-08 16:10:00,
2013-01-08 08:15:00,37.9,37.9,22.08,East,100,0.0,0.0,100,0.00,,---,0.00,VWS V13.01,2013-01-08 16:15:00,
2013-01-08 08:20:00,38.3,38.3,22.08,East,100,0.0,0.0,100,0.00,,---,0.00,VWS V13.01,2013-01-08 16:20:00,
2013-01-08 08:25:00,38.6,38.6,22.07,East,100,0.0,0.0,100,0.00,,---,0.00,VWS V13.01,2013-01-08 16:25:00,
2013-01-08 08:30:00,39.0,39.0,22.07,East,100,1.0,1.0,100,0.00,,---,0.00,VWS V13.01,2013-01-08 16:30:00,
2013-01-08 08:35:00,39.4,39.4,22.07,East,100,0.0,2.0,100,0.00,,---,0.00,VWS V13.01,2013-01-08 16:35:00,
2013-01-08 08:40:00,39.9,39.9,22.07,East,100,0.0,2.0,100,0.00,,---,0.00,VWS V13.01,2013-01-08 16:40:00,
2013-01-08 08:45:00,40.5,40.5,22.07,East,100,1.0,2.0,100,0.00,,---,0.00,VWS V13.01,2013-01-08 16:45:00,
2013-01-08 08:50:00,41.1,41.1,22.08,East,100,0.0,3.0,100,0.00,,---,0.00,VWS V13.01,2013-01-08 16:50:00,
2013-01-08 08:55:00,41.7,41.7,22.08,East,100,1.0,3.0,100,0.00,,---,0.00,VWS V13.01,2013-01-08 16:55:00,
2013-01-08 09:01:00,42.2,42.2,22.07,East,100,2.0,2.0,100,0.00,,---,0.00,VWS V13.01,2013-01-08 17:01:00,
2013-01-08 09:06:00,42.7,42.4,22.07,East,100,0.0,3.0,99,0.00,,---,0.00,VWS V13.01,2013-01-08 17:06:00,
2013-01-08 09:11:00,43.1,42.8,22.08,East,100,0.0,3.0,99,0.00,,---,0.00,VWS V13.01,2013-01-08 17:11:00,
2013-01-08 09:16:00,43.6,43.1,22.08,East,100,0.0,3.0,98,0.00,,---,0.00,VWS V13.01,2013-01-08 17:16:00,
2013-01-08 09:21:00,43.9,43.4,22.08,East,100,2.0,4.0,98,0.00,,---,0.00,VWS V13.01,2013-01-08 17:21:00,
2013-01-08 09:26:00,44.4,43.6,22.08,East,100,2.0,4.0,97,0.00,,---,0.00,VWS V13.01,2013-01-08 17:26:00,
2013-01-08 09:31:00,44.8,44.0,22.08,East,100,0.0,0.0,97,0.00,,---,0.00,VWS V13.01,2013-01-08 17:31:00,
2013-01-08 09:36:00,45.2,44.1,22.07,East,100,0.0,2.0,96,0.00,,---,0.00,VWS V13.01,2013-01-08 17:36:00,
2013-01-08 09:41:00,45.5,44.4,22.08,East,100,1.0,2.0,96,0.00,,---,0.00,VWS V13.01,2013-01-08 17:41:00,
2013-01-08 09:46:00,45.9,44.8,22.07,East,100,1.0,3.0,96,0.00,,---,0.00,VWS V13.01,2013-01-08 17:46:00,
2013-01-08 09:51:00,46.2,44.8,22.08,East,100,0.0,3.0,95,0.00,,---,0.00,VWS V13.01,2013-01-08 17:51:00,
2013-01-08 09:56:00,46.5,45.2,22.08,East,100,0.0,3.0,95,0.00,,---,0.00,VWS V13.01,2013-01-08 17:56:00,
2013-01-08 10:01:00,46.7,45.1,22.07,East,100,0.0,1.0,94,0.00,,---,0.00,VWS V13.01,2013-01-08 18:01:00,
2013-01-08 10:06:00,47.0,45.7,22.07,East,100,0.0,1.0,95,0.00,,---,0.00,VWS V13.01,2013-01-08 18:06:00,
2013-01-08 10:11:00,47.4,46.0,22.07,East,100,0.0,3.0,95,0.00,,---,0.00,VWS V13.01,2013-01-08 18:11:00,
2013-01-08 10:16:00,47.8,46.2,22.07,East,100,2.0,5.0,94,0.00,,---,0.00,VWS V13.01,2013-01-08 18:16:00,
2013-01-08 10:21:00,48.2,46.3,22.07,East,100,2.0,5.0,93,0.00,,---,0.00,VWS V13.01,2013-01-08 18:21:00,
2013-01-08 10:26:00,48.5,46.6,22.06,East,100,1.0,5.0,93,0.00,,---,0.00,VWS V13.01,2013-01-08 18:26:00,
2013-01-08 10:31:00,48.8,46.6,22.06,East,100,2.0,3.0,92,0.00,,---,0.00,VWS V13.01,2013-01-08 18:31:00,
2013-01-08 10:36:00,49.1,47.2,22.06,East,100,0.0,3.0,93,0.00,,---,0.00,VWS V13.01,2013-01-08 18:36:00,
2013-01-08 10:41:00,49.4,47.2,22.06,East,100,1.0,4.0,92,0.00,,---,0.00,VWS V13.01,2013-01-08 18:41:00,
2013-01-08 10:46:00,49.7,47.5,22.05,East,100,0.0,4.0,92,0.00,,---,0.00,VWS V13.01,2013-01-08 18:46:00,
2013-01-08 10:51:00,50.0,47.8,22.05,East,100,1.0,4.0,92,0.00,,---,0.00,VWS V13.01,2013-01-08 18:51:00,
2013-01-08 10:56:00,50.2,47.7,22.05,East,100,0.0,4.0,91,0.00,,---,0.00,VWS V13.01,2013-01-08 18:56:00,
2013-01-08 11:01:00,50.4,47.6,22.05,East,100,0.0,1.0,90,0.00,,---,0.00,VWS V13.01,2013-01-08 19:01:00,
2013-01-08 11:06:00,50.5,47.7,22.04,East,100,0.0,3.0,90,0.00,,---,0.00,VWS V13.01,2013-01-08 19:06:00,
2013-01-08 11:11:00,50.8,47.7,22.03,East,100,0.0,3.0,89,0.00,,---,0.00,VWS V13.01,2013-01-08 19:11:00,
2013-01-08 11:16:00,51.1,48.3,22.03,East,100,2.0,4.0,90,0.00,,---,0.00,VWS V13.01,2013-01-08 19:16:00,
2013-01-08 11:21:00,51.3,47.6,22.02,East,100,1.0,4.0,87,0.00,,---,0.00,VWS V13.01,2013-01-08 19:21:00,
2013-01-08 11:26:00,51.4,48.0,22.01,East,100,3.0,4.0,88,0.00,,---,0.00,VWS V13.01,2013-01-08 19:26:00,
2013-01-08 11:31:00,51.8,48.7,22.00,East,100,0.0,0.0,89,0.00,,---,0.00,VWS V13.01,2013-01-08 19:31:00,
2013-01-08 11:36:00,52.0,48.9,22.00,East,100,0.0,3.0,89,0.00,,---,0.00,VWS V13.01,2013-01-08 19:36:00,
2013-01-08 11:41:00,52.1,48.7,22.00,East,100,0.0,3.0,88,0.00,,---,0.00,VWS V13.01,2013-01-08 19:41:00,
2013-01-08 11:46:00,52.3,48.5,22.01,East,101,3.0,4.0,87,0.00,,---,0.00,VWS V13.01,2013-01-08 19:46:00,
2013-01-08 11:51:00,52.5,48.8,22.01,East,101,1.0,4.0,87,0.00,,---,0.00,VWS V13.01,2013-01-08 19:51:00,
2013-01-08 11:56:00,52.2,47.5,22.00,East,99,3.0,4.0,84,0.00,,---,0.00,VWS V13.01,2013-01-08 19:56:00,
2013-01-08 12:01:00,52.3,48.5,22.00,East,99,1.0,2.0,87,0.00,,---,0.00,VWS V13.01,2013-01-08 20:01:00,
2013-01-08 12:06:00,52.5,48.8,22.00,East,101,1.0,4.0,87,0.00,,---,0.00,VWS V13.01,2013-01-08 20:06:00,
2013-01-08 12:11:00,52.7,48.6,22.00,ESE,115,4.0,5.0,86,0.00,,---,0.00,VWS V13.01,2013-01-08 20:11:00,
2013-01-08 12:16:00,52.7,48.6,22.00,SW,231,1.0,5.0,86,0.00,,---,0.00,VWS V13.01,2013-01-08 20:16:00,
2013-01-08 12:21:00,52.9,48.8,21.99,SW,231,2.0,5.0,86,0.00,,---,0.00,VWS V13.01,2013-01-08 20:21:00,
2013-01-08 12:26:00,53.0,48.6,22.00,SW,231,2.0,5.0,85,0.00,,---,0.00,VWS V13.01,2013-01-08 20:26:00,
2013-01-08 12:31:00,53.0,48.9,21.99,SW,231,0.0,1.0,86,0.00,,---,0.00,VWS V13.01,2013-01-08 20:31:00,
2013-01-08 12:36:00,53.1,49.0,21.98,SW,231,1.0,2.0,86,0.00,,---,0.00,VWS V13.01,2013-01-08 20:36:00,
2013-01-08 12:41:00,53.1,49.0,21.98,SW,235,1.0,4.0,86,0.00,,---,0.00,VWS V13.01,2013-01-08 20:41:00,
2013-01-08 12:46:00,53.3,48.6,21.99,WSW,241,4.0,4.0,84,0.00,,---,0.00,VWS V13.01,2013-01-08 20:46:00,
2013-01-08 12:51:00,53.3,48.6,21.98,WSW,242,0.0,4.0,84,0.00,,---,0.00,VWS V13.01,2013-01-08 20:51:00,
2013-01-08 12:56:00,53.2,48.2,21.98,WSW,244,1.0,4.0,83,0.00,,---,0.00,VWS V13.01,2013-01-08 20:56:00,
2013-01-08 13:01:00,53.2,48.5,21.98,WSW,244,1.0,2.0,84,0.00,,---,0.00,VWS V13.01,2013-01-08 21:01:00,
2013-01-08 13:06:00,53.1,48.4,21.98,WSW,244,0.0,3.0,84,0.00,,---,0.00,VWS V13.01,2013-01-08 21:06:00,
2013-01-08 13:11:00,53.2,48.5,21.98,WSW,244,0.0,3.0,84,0.00,,---,0.00,VWS V13.01,2013-01-08 21:11:00,
2013-01-08 13:16:00,53.3,48.9,21.97,WSW,244,1.0,3.0,85,0.00,,---,0.00,VWS V13.01,2013-01-08 21:16:00,
2013-01-08 13:21:00,53.8,49.7,21.97,WSW,244,3.0,3.0,86,0.00,,---,0.00,VWS V13.01,2013-01-08 21:21:00,
2013-01-08 13:26:00,54.0,49.3,21.97,WSW,244,1.0,4.0,84,0.00,,---,0.00,VWS V13.01,2013-01-08 21:26:00,
2013-01-08 13:31:00,54.3,49.6,21.97,WSW,242,2.0,3.0,84,0.00,,---,0.00,VWS V13.01,2013-01-08 21:31:00,
2013-01-08 13:36:00,54.2,48.5,21.97,WSW,242,1.0,4.0,81,0.00,,---,0.00,VWS V13.01,2013-01-08 21:36:00,
2013-01-08 13:41:00,53.8,48.4,21.96,WSW,242,0.0,4.0,82,0.00,,---,0.00,VWS V13.01,2013-01-08 21:41:00,
2013-01-08 13:46:00,54.2,49.5,21.96,WSW,242,2.0,4.0,84,0.00,,---,0.00,VWS V13.01,2013-01-08 21:46:00,
2013-01-08 13:51:00,54.4,49.0,21.96,WSW,242,0.0,4.0,82,0.00,,---,0.00,VWS V13.01,2013-01-08 21:51:00,
2013-01-08 13:56:00,54.7,49.7,21.96,SW,231,0.0,4.0,83,0.00,,---,0.00,VWS V13.01,2013-01-08 21:56:00,
2013-01-08 14:01:00,54.7,49.3,21.96,SW,231,0.0,0.0,82,0.00,,---,0.00,VWS V13.01,2013-01-08 22:01:00,
2013-01-08 14:06:00,54.8,49.7,21.96,SW,230,3.0,3.0,83,0.00,,---,0.00,VWS V13.01,2013-01-08 22:06:00,
2013-01-08 14:11:00,55.1,49.7,21.96,SSW,212,3.0,6.0,82,0.00,,---,0.00,VWS V13.01,2013-01-08 22:11:00,
2013-01-08 14:16:00,55.2,49.5,21.96,SSW,213,2.0,6.0,81,0.00,,---,0.00,VWS V13.01,2013-01-08 22:16:00,
2013-01-08 14:21:00,55.3,49.9,21.96,SSW,207,2.0,6.0,82,0.00,,---,0.00,VWS V13.01,2013-01-08 22:21:00,
2013-01-08 14:26:00,55.3,49.9,21.96,South,170,0.0,6.0,82,0.00,,---,0.00,VWS V13.01,2013-01-08 22:26:00,
2013-01-08 14:31:00,55.2,49.8,21.96,South,170,1.0,2.0,82,0.00,,---,0.00,VWS V13.01,2013-01-08 22:31:00,
2013-01-08 14:36:00,55.5,49.8,21.96,South,170,2.0,4.0,81,0.00,,---,0.00,VWS V13.01,2013-01-08 22:36:00,
2013-01-08 14:42:00,55.5,49.8,21.96,South,171,0.0,4.0,81,0.00,,---,0.00,VWS V13.01,2013-01-08 22:42:00,
2013-01-08 14:47:00,55.5,50.1,21.96,South,171,0.0,4.0,82,0.00,,---,0.00,VWS V13.01,2013-01-08 22:47:00,
2013-01-08 14:52:00,55.2,49.8,21.96,South,171,1.0,4.0,82,0.00,,---,0.00,VWS V13.01,2013-01-08 22:52:00,
2013-01-08 14:57:00,55.4,50.0,21.96,SSE,156,3.0,5.0,82,0.00,,---,0.00,VWS V13.01,2013-01-08 22:57:00,
2013-01-08 15:02:00,55.5,50.1,21.96,SSE,150,2.0,3.0,82,0.00,,---,0.00,VWS V13.01,2013-01-08 23:02:00,
2013-01-08 15:07:00,55.5,50.1,21.96,SSE,150,2.0,3.0,82,0.00,,---,0.00,VWS V13.01,2013-01-08 23:07:00,
2013-01-08 15:12:00,55.6,50.2,21.96,SSE,149,3.0,4.0,82,0.00,,---,0.00,VWS V13.01,2013-01-08 23:12:00,
2013-01-08 15:17:00,55.7,50.3,21.95,SSE,149,3.0,4.0,82,0.00,,---,0.00,VWS V13.01,2013-01-08 23:17:00,
2013-01-08 15:22:00,55.7,50.3,21.95,SE,145,2.0,4.0,82,0.00,,---,0.00,VWS V13.01,2013-01-08 23:22:00,
2013-01-08 15:27:00,55.8,49.7,21.95,SE,143,3.0,6.0,80,0.00,,---,0.00,VWS V13.01,2013-01-08 23:27:00,
2013-01-08 15:32:00,55.7,50.0,21.95,SE,143,2.0,4.0,81,0.00,,---,0.00,VWS V13.01,2013-01-08 23:32:00,
2013-01-08 15:37:00,55.7,50.0,21.95,SE,141,5.0,6.0,81,0.00,,---,0.00,VWS V13.01,2013-01-08 23:37:00,
2013-01-08 15:42:00,55.6,49.5,21.95,SE,137,1.0,6.0,80,0.00,,---,0.00,VWS V13.01,2013-01-08 23:42:00,
2013-01-08 15:47:00,55.5,49.8,21.96,SE,137,3.0,6.0,81,0.00,,---,0.00,VWS V13.01,2013-01-08 23:47:00,
2013-01-08 15:52:00,55.4,49.7,21.96,SE,137,4.0,6.0,81,0.00,,---,0.00,VWS V13.01,2013-01-08 23:52:00,
2013-01-08 15:57:00,55.3,49.6,21.95,SE,137,2.0,6.0,81,0.00,,---,0.00,VWS V13.01,2013-01-08 23:57:00,
2013-01-08 16:02:00,55.1,49.4,21.95,SE,137,2.0,4.0,81,0.00,,---,0.00,VWS V13.01,2013-01-09 00:02:00,
2013-01-08 16:07:00,55.0,49.0,21.95,SE,137,2.0,4.0,80,0.00,,---,0.00,VWS V13.01,2013-01-09 00:07:00,
2013-01-08 16:12:00,54.8,48.8,21.95,SE,140,3.0,5.0,80,0.00,,---,0.00,VWS V13.01,2013-01-09 00:12:00,
2013-01-08 16:17:00,54.6,48.9,21.95,SE,140,0.0,5.0,81,0.00,,---,0.00,VWS V13.01,2013-01-09 00:17:00,
2013-01-08 16:22:00,54.3,48.6,21.95,SE,139,3.0,5.0,81,0.00,,---,0.00,VWS V13.01,2013-01-09 00:22:00,
2013-01-08 16:27:00,54.2,48.8,21.95,SE,137,3.0,5.0,82,0.00,,---,0.00,VWS V13.01,2013-01-09 00:27:00,
2013-01-08 16:32:00,54.1,48.7,21.96,SE,138,2.0,3.0,82,0.00,,---,0.00,VWS V13.01,2013-01-09 00:32:00,
2013-01-08 16:37:00,53.8,48.4,21.95,SE,138,0.0,3.0,82,0.00,,---,0.00,VWS V13.01,2013-01-09 00:37:00,
2013-01-08 16:42:00,53.7,48.7,21.95,SE,138,1.0,3.0,83,0.00,,---,0.00,VWS V13.01,2013-01-09 00:42:00,
2013-01-08 16:47:00,53.4,48.4,21.95,SE,138,0.0,3.0,83,0.00,,---,0.00,VWS V13.01,2013-01-09 00:47:00,
2013-01-08 16:52:00,53.2,48.2,21.96,SE,138,0.0,3.0,83,0.00,,---,0.00,VWS V13.01,2013-01-09 00:52:00,
2013-01-08 16:57:00,53.0,48.0,21.95,SE,138,0.0,3.0,83,0.00,,---,0.00,VWS V13.01,2013-01-09 00:57:00,
2013-01-08 17:02:00,52.6,47.9,21.95,SE,138,0.0,0.0,84,0.00,,---,0.00,VWS V13.01,2013-01-09 01:02:00,
2013-01-08 17:07:00,52.1,47.4,21.95,SE,138,0.0,0.0,84,0.00,,---,0.00,VWS V13.01,2013-01-09 01:07:00,
2013-01-08 17:12:00,51.7,47.3,21.95,SE,138,0.0,0.0,85,0.00,,---,0.00,VWS V13.01,2013-01-09 01:12:00,
2013-01-08 17:17:00,51.4,47.0,21.95,SE,138,0.0,0.0,85,0.00,,---,0.00,VWS V13.01,2013-01-09 01:17:00,
2013-01-08 17:22:00,51.0,47.0,21.95,SE,138,0.0,0.0,86,0.00,,---,0.00,VWS V13.01,2013-01-09 01:22:00,
2013-01-08 17:27:00,50.5,46.5,21.95,SE,138,0.0,0.0,86,0.00,,---,0.00,VWS V13.01,2013-01-09 01:27:00,
2013-01-08 17:32:00,50.2,46.2,21.95,SE,138,0.0,0.0,86,0.00,,---,0.00,VWS V13.01,2013-01-09 01:32:00,
2013-01-08 17:37:00,49.9,46.2,21.96,SE,138,0.0,0.0,87,0.00,,---,0.00,VWS V13.01,2013-01-09 01:37:00,
2013-01-08 17:42:00,49.6,45.9,21.95,SE,138,0.0,0.0,87,0.00,,---,0.00,VWS V13.01,2013-01-09 01:42:00,
2013-01-08 17:47:00,49.3,45.6,21.95,SE,138,0.0,0.0,87,0.00,,---,0.00,VWS V13.01,2013-01-09 01:47:00,
2013-01-08 17:52:00,49.0,45.6,21.95,SE,138,0.0,0.0,88,0.00,,---,0.00,VWS V13.01,2013-01-09 01:52:00,
2013-01-08 17:57:00,48.8,45.7,21.95,SE,138,0.0,0.0,89,0.00,,---,0.00,VWS V13.01,2013-01-09 01:57:00,
2013-01-08 18:02:00,48.5,45.1,21.95,SE,138,0.0,0.0,88,0.00,,---,0.00,VWS V13.01,2013-01-09 02:02:00,
2013-01-08 18:07:00,48.2,45.1,21.95,SE,138,0.0,0.0,89,0.00,,---,0.00,VWS V13.01,2013-01-09 02:07:00,
2013-01-08 18:12:00,47.9,45.1,21.95,SE,138,0.0,0.0,90,0.00,,---,0.00,VWS V13.01,2013-01-09 02:12:00,
2013-01-08 18:17:00,47.7,44.6,21.95,SE,138,0.0,0.0,89,0.00,,---,0.00,VWS V13.01,2013-01-09 02:17:00,
2013-01-08 18:22:00,47.5,44.7,21.95,SE,138,0.0,0.0,90,0.00,,---,0.00,VWS V13.01,2013-01-09 02:22:00,
2013-01-08 18:27:00,47.3,44.5,21.95,SE,138,0.0,0.0,90,0.00,,---,0.00,VWS V13.01,2013-01-09 02:27:00,
2013-01-08 18:32:00,47.1,44.3,21.95,SE,137,0.0,0.0,90,0.00,,---,0.00,VWS V13.01,2013-01-09 02:32:00,
2013-01-08 18:37:00,46.9,44.1,21.96,SE,138,0.0,0.0,90,0.00,,---,0.00,VWS V13.01,2013-01-09 02:37:00,
2013-01-08 18:42:00,46.9,44.4,21.97,SE,138,0.0,0.0,91,0.00,,---,0.00,VWS V13.01,2013-01-09 02:42:00,
2013-01-08 18:47:00,47.1,44.6,21.96,SE,138,0.0,0.0,91,0.00,,---,0.00,VWS V13.01,2013-01-09 02:47:00,
2013-01-08 18:52:00,47.0,44.5,21.97,SE,138,0.0,0.0,91,0.00,,---,0.00,VWS V13.01,2013-01-09 02:52:00,
2013-01-08 18:57:00,46.9,44.4,21.97,SE,138,0.0,0.0,91,0.00,,---,0.00,VWS V13.01,2013-01-09 02:57:00,
2013-01-08 19:02:00,46.7,44.2,21.97,SE,138,0.0,0.0,91,0.00,,---,0.00,VWS V13.01,2013-01-09 03:02:00,
2013-01-08 19:07:00,46.2,43.7,21.96,SE,138,0.0,0.0,91,0.00,,---,0.00,VWS V13.01,2013-01-09 03:07:00,
2013-01-08 19:12:00,46.0,43.8,21.97,SE,138,0.0,0.0,92,0.00,,---,0.00,VWS V13.01,2013-01-09 03:12:00,
2013-01-08 19:17:00,45.8,43.6,21.96,SE,138,0.0,0.0,92,0.00,,---,0.00,VWS V13.01,2013-01-09 03:17:00,
2013-01-08 19:23:00,45.6,43.4,21.96,SE,138,0.0,0.0,92,0.00,,---,0.00,VWS V13.01,2013-01-09 03:23:00,
2013-01-08 19:28:00,45.5,43.6,21.97,SE,138,0.0,0.0,93,0.00,,---,0.00,VWS V13.01,2013-01-09 03:28:00,
2013-01-08 19:33:00,45.2,43.0,21.96,SE,138,0.0,0.0,92,0.00,,---,0.00,VWS V13.01,2013-01-09 03:33:00,
2013-01-08 19:38:00,45.0,42.8,21.97,SE,138,0.0,0.0,92,0.00,,---,0.00,VWS V13.01,2013-01-09 03:38:00,
2013-01-08 19:43:00,44.8,42.9,21.97,SE,138,0.0,0.0,93,0.00,,---,0.00,VWS V13.01,2013-01-09 03:43:00,
2013-01-08 19:48:00,44.7,42.8,21.97,SE,138,0.0,0.0,93,0.00,,---,0.00,VWS V13.01,2013-01-09 03:48:00,
2013-01-08 19:53:00,44.5,42.6,21.97,SE,138,0.0,0.0,93,0.00,,---,0.00,VWS V13.01,2013-01-09 03:53:00,
2013-01-08 19:58:00,44.5,42.6,21.97,SE,138,0.0,0.0,93,0.00,,---,0.00,VWS V13.01,2013-01-09 03:58:00,
2013-01-08 20:03:00,44.5,42.6,21.98,SE,138,0.0,0.0,93,0.00,,---,0.00,VWS V13.01,2013-01-09 04:03:00,
2013-01-08 20:08:00,44.3,42.4,21.98,SE,138,0.0,0.0,93,0.00,,---,0.00,VWS V13.01,2013-01-09 04:08:00,
2013-01-08 20:13:00,44.2,42.3,21.98,SE,138,0.0,0.0,93,0.00,,---,0.00,VWS V13.01,2013-01-09 04:13:00,
2013-01-08 20:18:00,44.2,42.6,21.98,SE,138,0.0,0.0,94,0.00,,---,0.00,VWS V13.01,2013-01-09 04:18:00,
2013-01-08 20:23:00,44.2,42.6,21.98,SE,138,0.0,0.0,94,0.00,,---,0.00,VWS V13.01,2013-01-09 04:23:00,
2013-01-08 20:28:00,44.1,42.5,21.98,SE,138,0.0,0.0,94,0.00,,---,0.00,VWS V13.01,2013-01-09 04:28:00,
2013-01-08 20:33:00,44.0,42.4,21.98,SE,138,0.0,0.0,94,0.00,,---,0.00,VWS V13.01,2013-01-09 04:33:00,
2013-01-08 20:38:00,43.9,42.3,21.99,SE,138,0.0,0.0,94,0.00,,---,0.00,VWS V13.01,2013-01-09 04:38:00,
2013-01-08 20:43:00,43.8,42.2,21.99,SE,137,0.0,0.0,94,0.00,,---,0.00,VWS V13.01,2013-01-09 04:43:00,
2013-01-08 20:48:00,43.7,42.1,21.99,SE,138,0.0,0.0,94,0.00,,---,0.00,VWS V13.01,2013-01-09 04:48:00,
2013-01-08 20:53:00,43.6,42.3,21.99,SE,138,0.0,0.0,95,0.00,,---,0.00,VWS V13.01,2013-01-09 04:53:00,
2013-01-08 20:58:00,43.5,41.9,21.99,SE,138,0.0,0.0,94,0.00,,---,0.00,VWS V13.01,2013-01-09 04:58:00,
2013-01-08 21:00:00,43.5,42.2,22.00,SE,138,0.0,0.0,95,0.00,,---,0.00,VWS V13.01,2013-01-09 05:00:00,
2013-01-08 21:01:00,43.4,41.8,21.99,SE,138,0.0,0.0,94,0.00,,---,0.00,VWS V13.01,2013-01-09 05:01:00,
2013-01-08 21:03:00,43.2,41.6,21.99,SE,138,0.0,0.0,94,0.00,,---,0.00,VWS V13.01,2013-01-09 05:03:00,
2013-01-08 21:05:00,43.2,41.6,21.99,SE,138,0.0,0.0,94,0.00,,---,0.00,VWS V13.01,2013-01-09 05:05:00,
2013-01-08 21:10:00,43.1,41.8,21.98,SE,138,0.0,0.0,95,0.00,,---,0.00,VWS V13.01,2013-01-09 05:10:00,
2013-01-08 21:15:00,43.2,41.9,21.98,SE,138,0.0,1.0,95,0.00,,---,0.00,VWS V13.01,2013-01-09 05:15:00,
2013-01-08 21:20:00,43.2,41.9,21.98,SE,138,1.0,1.0,95,0.00,,---,0.00,VWS V13.01,2013-01-09 05:20:00,
2013-01-08 21:25:00,43.3,42.2,21.98,SE,138,1.0,3.0,96,0.00,,---,0.00,VWS V13.01,2013-01-09 05:25:00,
2013-01-08 21:30:00,43.2,42.1,21.98,SE,138,1.0,1.0,96,0.00,,---,0.00,VWS V13.01,2013-01-09 05:30:00,
2013-01-08 21:35:00,43.2,42.1,21.98,SE,138,0.0,1.0,96,0.00,,---,0.00,VWS V13.01,2013-01-09 05:35:00,
2013-01-08 21:40:00,43.2,42.1,21.98,SE,137,1.0,2.0,96,0.00,,---,0.00,VWS V13.01,2013-01-09 05:40:00,
2013-01-08 21:45:00,43.3,42.2,21.98,SE,138,1.0,2.0,96,0.00,,---,0.00,VWS V13.01,2013-01-09 05:45:00,
2013-01-08 21:50:00,43.4,42.3,21.98,SE,138,0.0,2.0,96,0.00,,---,0.00,VWS V13.01,2013-01-09 05:50:00,
2013-01-08 21:55:00,43.5,42.4,21.98,SE,138,0.0,2.0,96,0.00,,---,0.00,VWS V13.01,2013-01-09 05:55:00,
2013-01-08 22:00:00,43.5,42.4,21.99,SE,138,0.0,0.0,96,0.00,,---,0.00,VWS V13.01,2013-01-09 06:00:00,
2013-01-08 22:05:00,43.3,42.0,21.99,SE,138,0.0,0.0,95,0.00,,---,0.00,VWS V13.01,2013-01-09 06:05:00,
2013-01-08 22:10:00,43.1,42.0,21.98,SE,138,0.0,0.0,96,0.00,,---,0.00,VWS V13.01,2013-01-09 06:10:00,
2013-01-08 22:15:00,43.0,41.9,21.98,SE,138,0.0,2.0,96,0.00,,---,0.00,VWS V13.01,2013-01-09 06:15:00,
2013-01-08 22:20:00,43.0,41.9,21.99,SE,138,0.0,2.0,96,0.00,,---,0.00,VWS V13.01,2013-01-09 06:20:00,
2013-01-08 22:25:00,43.0,41.9,21.99,SE,138,0.0,2.0,96,0.00,,---,0.00,VWS V13.01,2013-01-09 06:25:00,
2013-01-08 22:30:00,42.9,41.8,21.99,SE,138,0.0,0.0,96,0.00,,---,0.00,VWS V13.01,2013-01-09 06:30:00,
2013-01-08 22:35:00,42.9,41.8,21.99,SE,137,0.0,0.0,96,0.00,,---,0.00,VWS V13.01,2013-01-09 06:35:00,
2013-01-08 22:40:00,42.9,41.8,21.99,SE,138,0.0,0.0,96,0.00,,---,0.00,VWS V13.01,2013-01-09 06:40:00,
2013-01-08 22:45:00,43.0,41.9,21.99,SE,138,0.0,0.0,96,0.00,,---,0.00,VWS V13.01,2013-01-09 06:45:00,
2013-01-08 22:50:00,43.1,42.3,21.99,SE,138,0.0,2.0,97,0.00,,---,0.00,VWS V13.01,2013-01-09 06:50:00,
2013-01-08 22:55:00,43.3,42.5,21.99,SE,138,0.0,2.0,97,0.00,,---,0.00,VWS V13.01,2013-01-09 06:55:00,
2013-01-08 23:00:00,43.4,42.3,21.99,SE,138,0.0,0.0,96,0.00,,---,0.00,VWS V13.01,2013-01-09 07:00:00,
2013-01-08 23:05:00,43.4,42.3,21.99,SE,138,0.0,0.0,96,0.00,,---,0.00,VWS V13.01,2013-01-09 07:05:00,
2013-01-08 23:10:00,43.4,42.3,21.99,SE,138,0.0,0.0,96,0.00,,---,0.00,VWS V13.01,2013-01-09 07:10:00,
2013-01-08 23:15:00,43.4,42.3,21.99,SE,138,0.0,0.0,96,0.00,,---,0.00,VWS V13.01,2013-01-09 07:15:00,
2013-01-08 23:20:00,43.4,42.6,21.99,SE,138,0.0,0.0,97,0.00,,---,0.00,VWS V13.01,2013-01-09 07:20:00,
2013-01-08 23:25:00,43.2,42.1,22.00,SE,138,0.0,0.0,96,0.00,,---,0.00,VWS V13.01,2013-01-09 07:25:00,
2013-01-08 23:30:00,43.2,42.1,22.00,SE,138,0.0,0.0,96,0.00,,---,0.00,VWS V13.01,2013-01-09 07:30:00,
2013-01-08 23:35:00,42.9,41.8,22.00,SE,138,0.0,0.0,96,0.00,,---,0.00,VWS V13.01,2013-01-09 07:35:00,
2013-01-08 23:40:00,42.9,41.8,22.00,SE,138,0.0,0.0,96,0.00,,---,0.00,VWS V13.01,2013-01-09 07:40:00,
2013-01-08 23:45:00,42.9,41.8,22.00,SE,138,0.0,0.0,96,0.00,,---,0.00,VWS V13.01,2013-01-09 07:45:00,
2013-01-08 23:50:00,42.8,41.7,22.00,SE,138,0.0,0.0,96,0.00,,---,0.00,VWS V13.01,2013-01-09 07:50:00,
2013-01-08 23:55:00,42.6,41.5,22.00,SE,138,0.0,0.0,96,0.00,,---,0.00,VWS V13.01,2013-01-09 07:55:00,